This is the latest recevied weather packets stored in our database for station/object WP3XM. If no packets are shown the sender has not sent any weather packets the latest 10 day(s).
| Time | Temp. | Humidity | Pressure | Rain* | Wind** | Luminosity | Snow |
|---|---|---|---|---|---|---|---|
| 1777852287 | 27.78° C | 77% | 1017.7 hPa | 0 mm | - | 0 W/m² | - |
| 1777851986 | 27.78° C | 78% | 1017.7 hPa | 0 mm | - | 0 W/m² | - |
| 1777851684 | 27.78° C | 78% | 1017.6 hPa | 0 mm | - | 0 W/m² | - |
| 1777851381 | 27.22° C | 79% | 1017.4 hPa | 0 mm | - | 0 W/m² | - |
| 1777851076 | 26.67° C | 82% | 1017.6 hPa | 0 mm | - | 0 W/m² | - |
| 1777850773 | 26.67° C | 81% | 1017.3 hPa | 0 mm | - | 0 W/m² | - |
| 1777850470 | 26.67° C | 80% | 1017.3 hPa | 0 mm | - | 0 W/m² | - |
| 1777850169 | 27.22° C | 80% | 1017.3 hPa | 0 mm | - | 0 W/m² | - |
| 1777849865 | 27.22° C | 79% | 1017 hPa | 0 mm | - | 0 W/m² | - |
| 1777849561 | 27.22° C | 79% | 1017.2 hPa | 0 mm | - | 0 W/m² | - |
| 1777849259 | 27.22° C | 79% | 1017.2 hPa | 0 mm | - | 0 W/m² | - |
| 1777848955 | 27.22° C | 79% | 1017.2 hPa | 0 mm | - | 1 W/m² | - |
| 1777848650 | 27.22° C | 78% | 1017.1 hPa | 0 mm | - | 2 W/m² | - |
| 1777848348 | 27.22° C | 78% | 1017.1 hPa | 0 mm | - | 4 W/m² | - |
| 1777848046 | 27.22° C | 77% | 1017.2 hPa | 0 mm | - | 8 W/m² | - |
| 1777847744 | 27.22° C | 77% | 1016.9 hPa | 0 mm | - | 12 W/m² | - |
| 1777847439 | 27.22° C | 76% | 1017.1 hPa | 0 mm | - | 16 W/m² | - |
| 1777847138 | 27.78° C | 75% | 1017.1 hPa | 0 mm | - | 21 W/m² | - |
| 1777846835 | 27.78° C | 75% | 1017.1 hPa | 0 mm | - | 26 W/m² | - |
| 1777846533 | 27.78° C | 74% | 1017 hPa | 0 mm | - | 32 W/m² | - |
| 1777846230 | 27.78° C | 75% | 1016.9 hPa | 0 mm | - | 37 W/m² | - |
| 1777845926 | 27.78° C | 74% | 1016.9 hPa | 0 mm | - | 46 W/m² | - |
| 1777845623 | 27.78° C | 73% | 1016.9 hPa | 0 mm | - | 58 W/m² | - |
| 1777845320 | 27.78° C | 73% | 1016.8 hPa | 0 mm | - | 44 W/m² | - |
| 1777845017 | 28.33° C | 72% | 1016.8 hPa | 0 mm | - | 83 W/m² | - |
* Rain latest hour (hover to see other rain measurements)
** Current wind speed in m/s (hover to see current wind gust speed)